This is the latest recevied weather packets stored in our database for station/object PA2JOK. If no packets are shown the sender has not sent any weather packets the latest 10 day(s).
| Time | Temp. | Humidity | Pressure | Rain* | Wind** | Luminosity | Snow |
|---|---|---|---|---|---|---|---|
| 1777735082 | 22.22° C | 49% | 1013.9 hPa | 0 mm | - | - | - |
| 1777734183 | 21.67° C | 51% | 1014.1 hPa | 0 mm | - | - | - |
| 1777733282 | 22.22° C | 51% | 1014.3 hPa | 0 mm | - | - | - |
| 1777732382 | 22.22° C | 52% | 1014.4 hPa | 0 mm | - | - | - |
| 1777731482 | 22.22° C | 53% | 1014.6 hPa | 0 mm | - | - | - |
| 1777730582 | 21.67° C | 53% | 1014.8 hPa | 0 mm | - | - | - |
| 1777729682 | 21.67° C | 54% | 1015 hPa | 0 mm | - | - | - |
| 1777728783 | 21.67° C | 54% | 1015.2 hPa | 0 mm | - | - | - |
| 1777727883 | 22.22° C | 53% | 1015.3 hPa | 0 mm | - | - | - |
| 1777726982 | 22.22° C | 53% | 1015.4 hPa | 0 mm | - | - | - |
| 1777726082 | 21.67° C | 54% | 1015.5 hPa | 0 mm | - | - | - |
| 1777725183 | 21.67° C | 54% | 1015.6 hPa | 0 mm | - | - | - |
| 1777724283 | 21.11° C | 56% | 1015.9 hPa | 0 mm | - | - | - |
| 1777723384 | 21.67° C | 55% | 1016 hPa | 0 mm | - | - | - |
| 1777722483 | 21.67° C | 55% | 1016 hPa | 0 mm | - | - | - |
| 1777721583 | 21.67° C | 54% | 1016.2 hPa | 0 mm | - | - | - |
| 1777720682 | 21.67° C | 54% | 1016.2 hPa | 0 mm | - | - | - |
| 1777719783 | 21.67° C | 54% | 1016.4 hPa | 0 mm | - | - | - |
| 1777718883 | 21.11° C | 55% | 1016.6 hPa | 0 mm | - | - | - |
| 1777717982 | 21.11° C | 54% | 1016.5 hPa | 0 mm | - | - | - |
| 1777717083 | 21.67° C | 54% | 1016.6 hPa | 0 mm | - | - | - |
| 1777716182 | 21.11° C | 55% | 1016.7 hPa | 0 mm | - | - | - |
| 1777715284 | 20.56° C | 57% | 1016.8 hPa | 0 mm | - | - | - |
| 1777714383 | 19.44° C | 60% | 1016.8 hPa | 0 mm | - | - | - |
| 1777713482 | 18.89° C | 61% | 1016.9 hPa | 0 mm | - | - | - |
* Rain latest hour (hover to see other rain measurements)
** Current wind speed in m/s (hover to see current wind gust speed)